SWA1071 KOAK-KPHX

Flight info

Callsign SWA1071
Flight time 1h 35m
Altitude 41000
Route CNDEL5 KAYEX LOSHN BOILE BLH HYDRR1
Aircraft B737/M-SADE2E3GIJ4RWZ/LB1D1

Departure

Time 2026-05-06 04:13
Airport San Francisco Bay Oakland International Airport (KOAK)

Arrival

Time 2026-05-06 05:48
Airport Phoenix Sky Harbor International Airport (KPHX)
Time Latitude Longitude Altitude Speed Heading
2026-05-06 03:37 37.71157 -122.21332 8 ft 0 kts 37°
2026-05-06 04:04 37.71146 -122.21342 8 ft 3 kts 38°
2026-05-06 04:04 37.71128 -122.21359 8 ft 3 kts 31°
2026-05-06 04:04 37.71112 -122.21371 10 ft 3 kts 31°
2026-05-06 04:04 37.71093 -122.21386 9 ft 3 kts 33°
2026-05-06 04:05 37.71074 -122.21403 9 ft 3 kts 36°
2026-05-06 04:05 37.71056 -122.21418 8 ft 3 kts 27°
2026-05-06 04:05 37.71035 -122.21428 9 ft 3 kts
2026-05-06 04:05 37.71015 -122.21425 9 ft 3 kts 324°
2026-05-06 04:06 37.71000 -122.21406 8 ft 3 kts 309°
2026-05-06 04:06 37.70996 -122.21399 8 ft 0 kts 309°
2026-05-06 04:09 37.71007 -122.21445 9 ft 11 kts 258°
2026-05-06 04:09 37.70941 -122.21523 8 ft 14 kts 218°
2026-05-06 04:09 37.70867 -122.21597 8 ft 13 kts 218°
2026-05-06 04:09 37.70796 -122.21669 8 ft 13 kts 218°
2026-05-06 04:10 37.70727 -122.21738 8 ft 13 kts 218°
2026-05-06 04:10 37.70650 -122.21774 8 ft 12 kts 169°
2026-05-06 04:10 37.70588 -122.21707 9 ft 12 kts 130°
2026-05-06 04:10 37.70535 -122.21629 8 ft 12 kts 130°
2026-05-06 04:11 37.70484 -122.21552 9 ft 11 kts 130°
2026-05-06 04:11 37.70434 -122.21477 8 ft 11 kts 130°
2026-05-06 04:11 37.70382 -122.21409 9 ft 11 kts 149°
2026-05-06 04:11 37.70314 -122.21376 8 ft 10 kts 160°
2026-05-06 04:12 37.70246 -122.21355 8 ft 10 kts 197°
2026-05-06 04:12 37.70183 -122.21407 9 ft 13 kts 228°
2026-05-06 04:12 37.70210 -122.21519 7 ft 19 kts 309°
2026-05-06 04:12 37.70430 -122.21850 9 ft 85 kts 310°
2026-05-06 04:13 37.70922 -122.22634 10 ft 143 kts 308°
2026-05-06 04:13 37.71583 -122.23682 470 ft 151 kts 306°
2026-05-06 04:13 37.72282 -122.24736 935 ft 171 kts 307°
2026-05-06 04:13 37.73122 -122.25981 1258 ft 200 kts 309°
2026-05-06 04:14 37.74060 -122.27366 1525 ft 225 kts 308°
2026-05-06 04:14 37.75166 -122.28996 1878 ft 249 kts 308°
2026-05-06 04:14 37.76206 -122.30527 2000 ft 255 kts 308°
2026-05-06 04:14 37.77360 -122.32236 2414 ft 256 kts 308°
2026-05-06 04:15 37.78503 -122.33956 3369 ft 257 kts 304°
2026-05-06 04:15 37.79173 -122.36036 4177 ft 262 kts 276°
2026-05-06 04:15 37.78933 -122.38333 4987 ft 269 kts 248°
2026-05-06 04:15 37.77825 -122.40268 5856 ft 278 kts 219°
2026-05-06 04:16 37.76163 -122.41383 6820 ft 286 kts 195°
2026-05-06 04:16 37.74472 -122.41856 7766 ft 287 kts 189°
2026-05-06 04:16 37.72402 -122.42294 8724 ft 296 kts 188°
2026-05-06 04:16 37.70345 -122.42707 9727 ft 302 kts 187°
2026-05-06 04:17 37.68262 -122.43139 10591 ft 312 kts 188°
2026-05-06 04:17 37.66113 -122.43597 10886 ft 339 kts 188°
2026-05-06 04:17 37.63678 -122.44130 11128 ft 367 kts 188°
2026-05-06 04:17 37.61115 -122.44706 11725 ft 381 kts 189°
2026-05-06 04:18 37.58513 -122.45296 12547 ft 386 kts 189°
2026-05-06 04:18 37.55840 -122.45533 13417 ft 389 kts 170°
2026-05-06 04:18 37.53348 -122.44457 14237 ft 386 kts 146°
2026-05-06 04:18 37.51280 -122.42334 15025 ft 384 kts 129°
2026-05-06 04:19 37.49531 -122.39760 15805 ft 388 kts 126°
2026-05-06 04:19 37.47809 -122.37115 16580 ft 392 kts 126°
2026-05-06 04:19 37.46084 -122.34431 17341 ft 397 kts 125°
2026-05-06 04:19 37.44332 -122.31708 18087 ft 402 kts 125°
2026-05-06 04:20 37.42554 -122.28965 18769 ft 407 kts 125°
2026-05-06 04:20 37.40767 -122.26227 19401 ft 411 kts 125°
2026-05-06 04:20 37.38941 -122.23445 20053 ft 415 kts 125°
2026-05-06 04:20 37.37093 -122.20641 20704 ft 419 kts 125°
2026-05-06 04:21 37.35220 -122.17809 21341 ft 423 kts 125°
2026-05-06 04:21 37.33326 -122.14950 21974 ft 427 kts 125°
2026-05-06 04:21 37.31415 -122.12071 22583 ft 431 kts 125°
2026-05-06 04:21 37.29483 -122.09163 23230 ft 434 kts 124°
2026-05-06 04:22 37.27549 -122.06256 23806 ft 437 kts 124°
2026-05-06 04:22 37.25583 -122.03301 24281 ft 441 kts 124°
2026-05-06 04:22 37.23607 -122.00335 24784 ft 443 kts 124°
2026-05-06 04:23 37.19620 -121.94360 25775 ft 449 kts 124°
2026-05-06 04:23 37.17612 -121.91351 26214 ft 451 kts 124°
2026-05-06 04:23 37.15585 -121.88319 26719 ft 453 kts 124°
2026-05-06 04:23 37.13581 -121.85329 27210 ft 455 kts 124°
2026-05-06 04:24 37.11534 -121.82275 27652 ft 458 kts 124°
2026-05-06 04:24 37.09481 -121.79211 28090 ft 461 kts 124°
2026-05-06 04:24 37.07412 -121.76128 28520 ft 463 kts 124°
2026-05-06 04:24 37.05331 -121.73028 28932 ft 466 kts 124°
2026-05-06 04:25 37.03240 -121.69917 29324 ft 468 kts 124°
2026-05-06 04:25 37.01138 -121.66793 29776 ft 469 kts 124°
2026-05-06 04:25 36.99035 -121.63673 30323 ft 466 kts 124°
2026-05-06 04:25 36.96949 -121.60584 30876 ft 463 kts 124°
2026-05-06 04:26 36.94875 -121.57514 31316 ft 463 kts 124°
2026-05-06 04:26 36.92793 -121.54432 31719 ft 463 kts 124°
2026-05-06 04:26 36.90710 -121.51351 32165 ft 462 kts 123°
2026-05-06 04:26 36.88638 -121.48289 32648 ft 461 kts 123°
2026-05-06 04:27 36.86567 -121.45232 33103 ft 459 kts 123°
2026-05-06 04:27 36.84525 -121.42220 33512 ft 458 kts 123°
2026-05-06 04:27 36.82465 -121.39183 33885 ft 458 kts 123°
2026-05-06 04:27 36.80409 -121.36155 34244 ft 457 kts 123°
2026-05-06 04:28 36.78354 -121.33131 34581 ft 457 kts 123°
2026-05-06 04:28 36.76301 -121.30111 34886 ft 456 kts 123°
2026-05-06 04:28 36.74247 -121.27094 35154 ft 457 kts 123°
2026-05-06 04:28 36.72185 -121.24068 35465 ft 456 kts 123°
2026-05-06 04:29 36.70130 -121.21056 35695 ft 457 kts 123°
2026-05-06 04:29 36.68092 -121.18071 35953 ft 457 kts 123°
2026-05-06 04:29 36.66003 -121.15016 36212 ft 457 kts 123°
2026-05-06 04:29 36.63967 -121.12040 36509 ft 456 kts 123°
2026-05-06 04:30 36.61911 -121.09041 36805 ft 455 kts 123°
2026-05-06 04:30 36.59856 -121.06044 36968 ft 456 kts 123°
2026-05-06 04:30 36.57793 -121.03036 37223 ft 456 kts 123°
2026-05-06 04:30 36.55741 -121.00045 37515 ft 455 kts 123°
2026-05-06 04:31 36.53684 -120.97052 37790 ft 455 kts 123°
2026-05-06 04:31 36.51629 -120.94062 38046 ft 455 kts 124°
2026-05-06 04:31 36.50259 -120.92071 38181 ft 456 kts 124°
2026-05-06 04:31 36.48195 -120.89073 38466 ft 455 kts 124°
2026-05-06 04:32 36.46136 -120.86088 38703 ft 455 kts 124°
2026-05-06 04:32 36.44072 -120.83096 38861 ft 456 kts 124°
2026-05-06 04:32 36.42001 -120.80097 39010 ft 457 kts 124°
2026-05-06 04:32 36.39933 -120.77105 39154 ft 457 kts 124°
2026-05-06 04:33 36.37861 -120.74110 39310 ft 457 kts 124°
2026-05-06 04:33 36.35786 -120.71113 39465 ft 457 kts 124°
2026-05-06 04:33 36.33709 -120.68118 39611 ft 458 kts 124°
2026-05-06 04:33 36.31630 -120.65121 39730 ft 459 kts 125°
2026-05-06 04:34 36.29551 -120.62129 39866 ft 457 kts 125°
2026-05-06 04:34 36.27473 -120.59138 39971 ft 458 kts 125°
2026-05-06 04:34 36.25413 -120.56175 40072 ft 460 kts 125°
2026-05-06 04:34 36.23321 -120.53169 40204 ft 460 kts 125°
2026-05-06 04:35 36.21227 -120.50165 40360 ft 460 kts 125°
2026-05-06 04:35 36.19135 -120.47166 40531 ft 460 kts 126°
2026-05-06 04:35 36.17035 -120.44159 40659 ft 461 kts 126°
2026-05-06 04:35 36.14937 -120.41156 40776 ft 461 kts 126°
2026-05-06 04:36 36.12832 -120.38146 40926 ft 462 kts 126°
2026-05-06 04:36 36.10727 -120.35138 41032 ft 463 kts 126°
2026-05-06 04:36 36.08636 -120.32153 41072 ft 465 kts 126°
2026-05-06 04:37 36.04388 -120.26097 41063 ft 465 kts 126°
2026-05-06 04:37 36.00160 -120.20085 41066 ft 462 kts 126°
2026-05-06 04:38 35.95947 -120.14101 41064 ft 460 kts 127°
2026-05-06 04:38 35.91750 -120.08150 41074 ft 459 kts 127°
2026-05-06 04:39 35.87555 -120.02211 41061 ft 459 kts 127°
2026-05-06 04:39 35.83374 -119.96302 41076 ft 462 kts 127°
2026-05-06 04:40 35.79118 -119.90296 41068 ft 466 kts 127°
2026-05-06 04:40 35.74853 -119.84293 41051 ft 465 kts 127°
2026-05-06 04:41 35.70593 -119.78309 41051 ft 464 kts 127°
2026-05-06 04:41 35.66351 -119.72358 41055 ft 463 kts 127°
2026-05-06 04:42 35.62092 -119.66393 41047 ft 462 kts 127°
2026-05-06 04:42 35.57876 -119.60498 41057 ft 462 kts 127°
2026-05-06 04:43 35.53624 -119.54563 41056 ft 463 kts 127°
2026-05-06 04:43 35.49392 -119.48667 41062 ft 464 kts 128°
2026-05-06 04:44 35.45106 -119.42705 41061 ft 466 kts 128°
2026-05-06 04:44 35.40810 -119.36741 41056 ft 468 kts 128°
2026-05-06 04:45 35.36522 -119.30796 41056 ft 470 kts 128°
2026-05-06 04:45 35.32188 -119.24801 41063 ft 471 kts 128°
2026-05-06 04:46 35.28054 -119.19093 41055 ft 472 kts 128°
2026-05-06 04:46 35.23693 -119.13079 41055 ft 473 kts 128°
2026-05-06 04:47 35.19321 -119.07063 41059 ft 472 kts 128°
2026-05-06 04:47 35.14977 -119.01096 41064 ft 473 kts 129°
2026-05-06 04:48 35.10576 -118.95060 41082 ft 472 kts 129°
2026-05-06 04:48 35.06208 -118.89077 41077 ft 472 kts 129°
2026-05-06 04:49 35.01837 -118.83104 41056 ft 472 kts 129°
2026-05-06 04:49 34.97459 -118.77130 41082 ft 472 kts 129°
2026-05-06 04:50 34.93102 -118.71195 41087 ft 472 kts 129°
2026-05-06 04:50 34.88726 -118.65245 41090 ft 473 kts 130°
2026-05-06 04:51 34.84328 -118.59276 41077 ft 473 kts 130°
2026-05-06 04:51 34.79924 -118.53308 41057 ft 474 kts 130°
2026-05-06 04:52 34.75506 -118.47332 41061 ft 474 kts 130°
2026-05-06 04:52 34.71087 -118.41364 41057 ft 475 kts 130°
2026-05-06 04:53 34.66691 -118.35439 41060 ft 475 kts 131°
2026-05-06 04:53 34.62247 -118.29458 41046 ft 476 kts 131°
2026-05-06 04:54 34.57807 -118.23492 41054 ft 476 kts 131°
2026-05-06 04:54 34.53362 -118.17530 41046 ft 476 kts 131°
2026-05-06 04:55 34.48929 -118.11593 41041 ft 477 kts 132°
2026-05-06 04:55 34.44526 -118.05633 41037 ft 476 kts 127°
2026-05-06 04:56 34.41248 -117.98788 41040 ft 475 kts 110°
2026-05-06 04:56 34.39331 -117.91147 41049 ft 474 kts 104°
2026-05-06 04:57 34.37574 -117.83453 41051 ft 474 kts 104°
2026-05-06 04:57 34.35789 -117.75800 41060 ft 476 kts 105°
2026-05-06 04:58 34.33944 -117.68068 41063 ft 479 kts 105°
2026-05-06 04:58 34.32078 -117.60334 41060 ft 478 kts 106°
2026-05-06 04:59 34.30227 -117.52690 41057 ft 476 kts 106°
2026-05-06 04:59 34.28428 -117.45273 41045 ft 474 kts 106°
2026-05-06 05:00 34.26569 -117.37628 41063 ft 474 kts 106°
2026-05-06 05:00 34.24713 -117.30018 41063 ft 474 kts 107°
2026-05-06 05:01 34.22839 -117.22361 41090 ft 476 kts 107°
2026-05-06 05:01 34.20957 -117.14688 41038 ft 478 kts 107°
2026-05-06 05:02 34.19054 -117.06957 41022 ft 480 kts 107°
2026-05-06 05:02 34.17171 -116.99329 41028 ft 482 kts 107°
2026-05-06 05:03 34.15262 -116.91619 41013 ft 484 kts 107°
2026-05-06 05:03 34.13339 -116.83874 40968 ft 485 kts 107°
2026-05-06 05:04 34.11395 -116.76065 40985 ft 486 kts 107°
2026-05-06 05:04 34.09477 -116.68388 40974 ft 487 kts 107°
2026-05-06 05:05 34.07601 -116.60901 40961 ft 487 kts 108°
2026-05-06 05:05 34.05648 -116.53125 40978 ft 487 kts 108°
2026-05-06 05:06 34.03688 -116.45347 40968 ft 487 kts 108°
2026-05-06 05:06 34.01752 -116.37688 40970 ft 486 kts 108°
2026-05-06 05:07 33.99927 -116.30476 40955 ft 486 kts 108°
2026-05-06 05:07 33.97948 -116.22693 40962 ft 485 kts 109°
2026-05-06 05:08 33.95961 -116.14904 40961 ft 486 kts 109°
2026-05-06 05:08 33.94394 -116.08777 40943 ft 486 kts 109°
2026-05-06 05:10 33.93469 -116.05165 40946 ft 486 kts 109°
2026-05-06 05:10 33.91585 -115.97823 40943 ft 486 kts 109°
2026-05-06 05:11 33.89702 -115.90504 40935 ft 486 kts 109°
2026-05-06 05:11 33.87789 -115.83085 40918 ft 487 kts 110°
2026-05-06 05:12 33.85801 -115.75405 40926 ft 488 kts 110°
2026-05-06 05:12 33.83783 -115.67627 40938 ft 491 kts 110°
2026-05-06 05:13 33.81933 -115.60511 40935 ft 494 kts 110°
2026-05-06 05:13 33.80145 -115.53653 40937 ft 494 kts 110°
2026-05-06 05:14 33.78073 -115.45731 40937 ft 493 kts 110°
2026-05-06 05:14 33.76017 -115.37899 40898 ft 493 kts 110°
2026-05-06 05:15 33.73949 -115.30040 40925 ft 493 kts 110°
2026-05-06 05:15 33.72222 -115.23493 40930 ft 494 kts 110°
2026-05-06 05:16 33.70066 -115.15344 40941 ft 496 kts 111°
2026-05-06 05:16 33.68399 -115.09059 40938 ft 497 kts 111°
2026-05-06 05:17 33.66297 -115.01151 40947 ft 498 kts 111°
2026-05-06 05:17 33.64182 -114.93216 40905 ft 501 kts 111°
2026-05-06 05:17 33.63107 -114.89196 40338 ft 509 kts 111°
2026-05-06 05:18 33.62033 -114.85179 39754 ft 502 kts 111°
2026-05-06 05:18 33.60964 -114.81179 39151 ft 502 kts 111°
2026-05-06 05:18 33.59893 -114.77192 38475 ft 503 kts 111°
2026-05-06 05:18 33.58900 -114.73155 37690 ft 506 kts 108°
2026-05-06 05:19 33.58061 -114.69048 36989 ft 506 kts 106°
2026-05-06 05:19 33.57297 -114.64924 36268 ft 505 kts 105°
2026-05-06 05:19 33.56560 -114.60842 35540 ft 506 kts 105°
2026-05-06 05:19 33.55803 -114.56714 34703 ft 508 kts 105°
2026-05-06 05:20 33.55023 -114.52574 33843 ft 510 kts 106°
2026-05-06 05:20 33.54224 -114.48427 32836 ft 511 kts 106°
2026-05-06 05:20 33.53425 -114.44338 31895 ft 510 kts 105°
2026-05-06 05:20 33.52614 -114.40220 30953 ft 510 kts 105°
2026-05-06 05:21 33.51928 -114.36746 30123 ft 510 kts 105°
2026-05-06 05:21 33.51113 -114.32624 28920 ft 509 kts 104°
2026-05-06 05:21 33.50490 -114.29470 28191 ft 503 kts 104°
2026-05-06 05:21 33.49717 -114.25552 27097 ft 500 kts 104°
2026-05-06 05:22 33.49001 -114.21930 26314 ft 484 kts 104°
2026-05-06 05:22 33.48267 -114.18221 25508 ft 467 kts 103°
2026-05-06 05:22 33.47702 -114.15370 25291 ft 455 kts 103°
2026-05-06 05:22 33.47002 -114.11851 25136 ft 436 kts 103°
2026-05-06 05:23 33.46340 -114.08526 24951 ft 421 kts 103°
2026-05-06 05:23 33.45698 -114.05310 24720 ft 409 kts 103°
2026-05-06 05:23 33.44472 -113.99203 24279 ft 397 kts 102°
2026-05-06 05:24 33.43861 -113.96166 24081 ft 400 kts 103°
2026-05-06 05:24 33.43237 -113.93059 23853 ft 403 kts 102°
2026-05-06 05:24 33.42661 -113.90193 23612 ft 401 kts 102°
2026-05-06 05:24 33.42018 -113.86994 23311 ft 397 kts 102°
2026-05-06 05:25 33.41403 -113.83938 23024 ft 393 kts 102°
2026-05-06 05:25 33.40789 -113.80888 22779 ft 390 kts 102°
2026-05-06 05:25 33.40210 -113.78016 22537 ft 391 kts 102°
2026-05-06 05:25 33.39589 -113.74941 22285 ft 395 kts 102°
2026-05-06 05:26 33.38963 -113.71836 22042 ft 395 kts 103°
2026-05-06 05:26 33.38367 -113.68877 21794 ft 397 kts 103°
2026-05-06 05:26 33.37737 -113.65773 21545 ft 396 kts 103°
2026-05-06 05:26 33.37104 -113.62661 21291 ft 394 kts 103°
2026-05-06 05:27 33.36486 -113.59624 21038 ft 392 kts 103°
2026-05-06 05:27 33.35859 -113.56545 20789 ft 390 kts 103°
2026-05-06 05:27 33.35269 -113.53647 20575 ft 389 kts 103°
2026-05-06 05:27 33.34654 -113.50627 20312 ft 388 kts 103°
2026-05-06 05:28 33.34029 -113.47568 20061 ft 387 kts 103°
2026-05-06 05:28 33.33419 -113.44513 19814 ft 387 kts 102°
2026-05-06 05:28 33.32890 -113.41521 19568 ft 386 kts 101°
2026-05-06 05:28 33.32369 -113.38413 19312 ft 386 kts 101°
2026-05-06 05:29 33.31847 -113.35286 19059 ft 386 kts 101°
2026-05-06 05:29 33.31316 -113.32145 18809 ft 385 kts 101°
2026-05-06 05:29 33.30777 -113.29005 18553 ft 385 kts 101°
2026-05-06 05:29 33.30235 -113.25882 18304 ft 384 kts 101°
2026-05-06 05:30 33.29693 -113.22763 18020 ft 383 kts 101°
2026-05-06 05:30 33.29244 -113.19868 17770 ft 381 kts 99°
2026-05-06 05:30 33.28835 -113.16920 17524 ft 379 kts 99°
2026-05-06 05:30 33.28414 -113.13861 17269 ft 377 kts 99°
2026-05-06 05:31 33.27987 -113.10831 17026 ft 374 kts 99°
2026-05-06 05:31 33.27582 -113.08005 16810 ft 367 kts 99°
2026-05-06 05:31 33.27335 -113.05032 16591 ft 354 kts 90°
2026-05-06 05:31 33.27386 -113.02209 16384 ft 347 kts 87°
2026-05-06 05:32 33.27504 -112.99604 16186 ft 344 kts 86°
2026-05-06 05:32 33.27630 -112.96763 15981 ft 345 kts 87°
2026-05-06 05:32 33.27740 -112.93890 15762 ft 348 kts 87°
2026-05-06 05:32 33.27831 -112.90984 15544 ft 350 kts 88°
2026-05-06 05:33 33.27908 -112.88078 15316 ft 349 kts 88°
2026-05-06 05:33 33.27979 -112.85183 15088 ft 347 kts 88°
2026-05-06 05:33 33.28047 -112.82375 14855 ft 337 kts 88°
2026-05-06 05:33 33.28213 -112.79611 14639 ft 328 kts 84°
2026-05-06 05:34 33.28456 -112.77024 14432 ft 320 kts 83°
2026-05-06 05:34 33.28691 -112.74734 14262 ft 318 kts 83°
2026-05-06 05:34 33.28946 -112.72246 14079 ft 317 kts 83°
2026-05-06 05:34 33.29209 -112.69618 13856 ft 319 kts 83°
2026-05-06 05:35 33.29467 -112.66983 13657 ft 321 kts 83°
2026-05-06 05:35 33.29722 -112.64319 13423 ft 321 kts 84°
2026-05-06 05:35 33.29972 -112.61676 13201 ft 320 kts 84°
2026-05-06 05:35 33.30219 -112.59043 12981 ft 318 kts 84°
2026-05-06 05:36 33.30465 -112.56411 12757 ft 317 kts 84°
2026-05-06 05:36 33.30704 -112.53829 12551 ft 315 kts 84°
2026-05-06 05:36 33.30944 -112.51233 12343 ft 314 kts 84°
2026-05-06 05:36 33.31183 -112.48646 12125 ft 312 kts 84°
2026-05-06 05:37 33.31420 -112.46075 11923 ft 310 kts 84°
2026-05-06 05:37 33.31655 -112.43516 11717 ft 309 kts 84°
2026-05-06 05:37 33.31888 -112.40969 11524 ft 307 kts 84°
2026-05-06 05:37 33.32119 -112.38438 11325 ft 305 kts 84°
2026-05-06 05:38 33.32349 -112.35918 11126 ft 304 kts 83°
2026-05-06 05:38 33.32578 -112.33415 10926 ft 302 kts 83°
2026-05-06 05:38 33.32805 -112.30923 10728 ft 300 kts 83°
2026-05-06 05:38 33.33031 -112.28448 10528 ft 298 kts 83°
2026-05-06 05:39 33.33254 -112.25994 10331 ft 296 kts 83°
2026-05-06 05:39 33.33473 -112.23579 10139 ft 293 kts 83°
2026-05-06 05:39 33.33690 -112.21190 9932 ft 284 kts 83°
2026-05-06 05:39 33.33899 -112.18877 9731 ft 275 kts 83°
2026-05-06 05:40 33.34103 -112.16621 9541 ft 271 kts 83°
2026-05-06 05:40 33.34301 -112.14422 9357 ft 262 kts 83°
2026-05-06 05:40 33.34493 -112.12281 9180 ft 255 kts 82°
2026-05-06 05:40 33.34678 -112.10216 9030 ft 247 kts 82°
2026-05-06 05:41 33.34802 -112.08188 8820 ft 245 kts 88°
2026-05-06 05:41 33.34777 -112.06153 8566 ft 243 kts 90°
2026-05-06 05:41 33.34729 -112.04139 8302 ft 241 kts 90°
2026-05-06 05:41 33.34689 -112.02184 8056 ft 239 kts 90°
2026-05-06 05:42 33.34659 -112.00456 7828 ft 237 kts 90°
2026-05-06 05:42 33.34630 -111.98495 7597 ft 236 kts 90°
2026-05-06 05:42 33.34603 -111.96516 7358 ft 238 kts 90°
2026-05-06 05:42 33.34576 -111.94524 7112 ft 241 kts 90°
2026-05-06 05:43 33.34570 -111.92520 6762 ft 242 kts 88°
2026-05-06 05:43 33.34623 -111.90545 6418 ft 233 kts 86°
2026-05-06 05:43 33.34692 -111.88647 6056 ft 224 kts 86°
2026-05-06 05:43 33.34953 -111.86865 5628 ft 215 kts 59°
2026-05-06 05:44 33.36028 -111.85750 5265 ft 205 kts 16°
2026-05-06 05:44 33.37435 -111.85529 4932 ft 205 kts 352°
2026-05-06 05:44 33.38770 -111.86015 4532 ft 198 kts 328°
2026-05-06 05:44 33.39928 -111.86820 4117 ft 188 kts 326°
2026-05-06 05:45 33.41033 -111.87600 3757 ft 182 kts 326°
2026-05-06 05:45 33.42118 -111.88392 3341 ft 184 kts 319°
2026-05-06 05:45 33.42747 -111.89622 2856 ft 169 kts 272°
2026-05-06 05:45 33.42823 -111.90935 2655 ft 149 kts 274°
2026-05-06 05:46 33.42877 -111.92075 2453 ft 126 kts 270°
2026-05-06 05:46 33.42884 -111.93129 2296 ft 128 kts 268°
2026-05-06 05:46 33.42885 -111.94209 2154 ft 130 kts 268°
2026-05-06 05:46 33.42883 -111.95284 1968 ft 130 kts 270°
2026-05-06 05:47 33.42884 -111.96359 1803 ft 129 kts 269°
2026-05-06 05:47 33.42885 -111.97457 1626 ft 133 kts 271°
2026-05-06 05:47 33.42885 -111.98561 1438 ft 131 kts 270°
2026-05-06 05:47 33.42885 -111.99635 1268 ft 130 kts 270°
2026-05-06 05:48 33.42885 -112.00709 1132 ft 125 kts 270°
2026-05-06 05:48 33.42885 -112.01602 1127 ft 84 kts 270°
2026-05-06 05:48 33.42885 -112.02102 1123 ft 30 kts 270°
2026-05-06 05:48 33.42960 -112.02180 1118 ft 16 kts
2026-05-06 05:49 33.42992 -112.02079 1124 ft 13 kts 87°
2026-05-06 05:49 33.42996 -112.01970 1125 ft 13 kts 89°
2026-05-06 05:49 33.42996 -112.01865 1125 ft 13 kts 90°
2026-05-06 05:49 33.42996 -112.01762 1123 ft 13 kts 90°
2026-05-06 05:50 33.42997 -112.01615 1125 ft 20 kts 89°
2026-05-06 05:50 33.42997 -112.01457 1126 ft 19 kts 90°
2026-05-06 05:50 33.42995 -112.01301 1123 ft 18 kts 90°
2026-05-06 05:50 33.42994 -112.01150 1125 ft 18 kts 90°
2026-05-06 05:51 33.42992 -112.01005 1126 ft 17 kts 90°
2026-05-06 05:51 33.42991 -112.00865 1126 ft 17 kts 89°
2026-05-06 05:51 33.42993 -112.00723 1125 ft 18 kts 89°
2026-05-06 05:51 33.43053 -112.00625 1124 ft 16 kts 360°
2026-05-06 05:52 33.43160 -112.00612 1131 ft 16 kts 32°
2026-05-06 05:52 33.43214 -112.00502 1119 ft 16 kts 82°
2026-05-06 05:52 33.43213 -112.00372 1124 ft 15 kts 90°
2026-05-06 05:52 33.43213 -112.00247 1124 ft 15 kts 90°
2026-05-06 05:53 33.43213 -112.00128 1122 ft 14 kts 90°
2026-05-06 05:53 33.43213 -112.00015 1119 ft 13 kts 90°
2026-05-06 05:53 33.43214 -111.99906 1125 ft 13 kts 89°
2026-05-06 05:53 33.43239 -111.99812 1122 ft 13 kts 25°
2026-05-06 05:54 33.43283 -111.99733 1122 ft 12 kts 87°
2026-05-06 05:54 33.43300 -111.99654 1121 ft 7 kts 18°
2026-05-06 05:54 33.43340 -111.99651 1123 ft 0 kts
2026-05-06 05:54 33.43343 -111.99651 1123 ft 0 kts